FENGYUN 1C DEB *

Satellite information

Favourite Embed

Satellite Type and Status

DEBRISIN ORBIT

Key statistics

Satellite FENGYUN 1C DEB * at a glance.

Uptime

9714

Days in orbit

Revolutions

≈ 14.4

Per day

Orbit

SSO

Sun Synchronous Orbit

Inclination

98.9

Latest

Satellite identification and parameters

Extended collection of information and parameters for FENGYUN 1C DEB *.

Object identification

Identified? True

Debris? True

Object name: FENGYUN 1C DEB *

International designator: 1999-025FAU

Object number (NORAD): 47018

Object ID (CCSDS): 47018

Country: PEOPLES REPUBLIC OF CHINA (PRC)

Current information (Y/N): Y

RCS size: SMALL

Orbital parameters

Period: 100.238 minutes

Inclination: 98.9291 deg

SMA: 7147.977 km

Apoapsis: 790.551 km

Periapsis: 749.133 km

RAAN: 323.3084 deg

Eccentricy: 0.0028972

Argument of periapsis: 241.2368 deg

Mean anomaly: 148.5279 deg

Mean motion: 14.36574106 rev/day

Mean motion (dot): 0.00042278 rev/day2

B* drag term: 0.014243 1/REarth

Two-line elements (TLE)

Creation date: April 9, 2025, 5:26 p.m.

Reference frame: TEME

Reference center: EARTH

Epoch: Sept. 24, 2024, 2:40 a.m. UTC

TLE line 0: 0 FENGYUN 1C DEB *

TLE line 1: 1 47018U 99025FAU 24268.11123966 .00042278 00000-0 14243-1 0 9994

TLE line 2: 2 47018 98.9291 323.3084 0028972 241.2368 148.5279 14.36574106718859

Live tracking on map

Real-time ground track for satellite FENGYUN 1C DEB *.

In-orbit conjunctions

A list of the most updated potential collisions computed for object FENGYUN 1C DEB *.

Target Orbit TCA Probability of collision Miss distance Type
COSMOS 614 LEO 2024-09-17 00:44:41 0.0001906333 845.0 (m) PAYLOAD
COSMOS 2056 LEO 2024-06-10 08:51:35 0.0001118908 615.0 (m) PAYLOAD

Associated space launch

Chinese polar orbiting meteorological satellite

FENGYUN 1C DEB * was lifted into orbit during the mission ‘Long March 4B | Feng Yun 1C’, on board a Long March 4B space rocket.

The launch took place on May 10, 1999, 1:33 a.m. from Launch Complex 7.

For more information about the launch, click the button.

Launch to space Long March 4B | Feng Yun 1C
Long March 4B | Feng Yun 1C

Agency: N/A

Status: Launch Successful

Launch date: May 10, 1999, 1:33 a.m. UTC

Rocket: Long March 4B

Launch pad: Launch Complex 7

Location: Taiyuan Satellite Launch Center, People's Republic of China

...

Latest news about this satellite

There are no fresh news available about this satellite. Check back as we update our databases every day.


Newsletter sign-up

Weekly statistics, charts and insights to help you stay on top of the space industry.